PALAPA D

Last updated on March 8, 2021, 6:42 a.m. UTC

1 35812U 09046A   21066.22755752 -.00000376  00000-0  00000-0 0  9995
2 35812   0.7929  94.3306 0003904 310.9162 314.7573  1.00271439 42341
UTC
Height (km)
Latitude
Longitude
Inclination
Orbital Period
UTC large
Height (km)
Speed (km/s)
/
Latitude / Longitude
Inclination (degrees)
Orbital Period (minutes)
Azimuth
Elevation
Range (km)
Doppler Factor
iOS Compass Heading
iOS Angle

Next 30 passes for location: Hong Kong

Rise time Rise Azimuth (degrees) Set time Set Azimuth (degrees) Duration Max altitude (degrees)

No matching passes for this satellites